User: anonymous   Login
Location: Noordwijk
(52.2400°N, 4.4500°E)
Time: 12:10:53
(UTC+00:00)
Language:

CUBEBUG 2 - Orbit

View from above orbital plane
View from above orbital plane
View from above satellite
View from above satellite

Ground track
Ground track

The orbit data is extracted from the following two-line orbital elements,

1 39440U 13066AA  22338.12765215  .00002078  00000-0  28374-3 0  9997
2 39440  97.7487 288.7969 0076571 301.7970  57.5800 14.77668852486531
Epoch (UTC): 04 December 2022 03:03:49
Eccentricity: 0.0076571
inclination: 97.7487°
perigee height: 583 km
apogee height: 690 km
right ascension of ascending node: 288.7969°
argument of perigee: 301.7970°
revolutions per day: 14.77668852
mean anomaly at epoch: 57.5800°
orbit number at epoch: 48653

The dashed part of the orbit path shows where the satellite is in the earth's shadow,  

DLR